,,PA_Meas_PMT16A,,PR_Meas_QMR101_102,,RH_Meas_QMH101,,SR_Meas_QMS101,,TA_Meas_QMH101,,GenWind,,GenWind,
time,status,PA,status,PR,status,RH,status,SR,status,TA,status,DirAvg,status,SpdAvg,
2011-09-10, 00:00:04,VALID,918.332,VALID,0,VALID,97.4273,VALID,0,VALID,19.9173,VALID,167,VALID,0.360156,
2011-09-10, 00:01:04,VALID,918.348,VALID,0,VALID,97.4273,VALID,0,VALID,19.9563,VALID,167,VALID,0.159375,
2011-09-10, 00:02:04,VALID,918.334,VALID,0,VALID,97.412,VALID,0,VALID,19.9953,VALID,167,VALID,0.0175781,
2011-09-10, 00:03:04,VALID,918.327,VALID,0,VALID,97.4349,VALID,0,VALID,19.9758,VALID,167,VALID,0.311719,
2011-09-10, 00:04:04,VALID,918.347,VALID,0,VALID,97.4196,VALID,0,VALID,20.0148,VALID,167,VALID,0,
2011-09-10, 00:05:04,VALID,918.339,VALID,0,VALID,97.4273,VALID,0,VALID,20.0328,VALID,167,VALID,0,
2011-09-10, 00:06:04,VALID,918.33,VALID,0,VALID,97.4349,VALID,0,VALID,20.0733,VALID,167,VALID,0.478516,
2011-09-10, 00:07:04,VALID,918.349,VALID,0,VALID,97.4349,VALID,0,VALID,19.9743,VALID,167,VALID,0.21875,
2011-09-10, 00:08:04,VALID,918.326,VALID,0,VALID,97.4349,VALID,0,VALID,20.0148,VALID,167,VALID,0.0679687,
2011-09-10, 00:09:04,VALID,918.325,VALID,0,VALID,97.4273,VALID,0,VALID,20.0538,VALID,167,VALID,0.0953125,
2011-09-10, 00:10:04,VALID,918.291,VALID,0,VALID,97.4273,VALID,0,VALID,20.0343,VALID,167,VALID,0.257813,
2011-09-10, 00:11:04,VALID,918.308,VALID,0,VALID,97.4196,VALID,0,VALID,20.0133,VALID,167,VALID,0.315234,
2011-09-10, 00:12:04,VALID,918.271,VALID,0,VALID,97.4349,VALID,0,VALID,20.0343,VALID,167,VALID,0.0933594,
2011-09-10, 00:13:04,VALID,918.284,VALID,0,VALID,97.4196,VALID,0,VALID,20.0343,VALID,167,VALID,0.248828,
2011-09-10, 00:14:04,VALID,918.24,VALID,0,VALID,97.4349,VALID,0,VALID,20.0733,VALID,167,VALID,0.41875,
2011-09-10, 00:15:04,VALID,918.232,VALID,0,VALID,97.4425,VALID,0,VALID,20.1123,VALID,167,VALID,0.0105469,
2011-09-10, 00:16:04,VALID,918.206,VALID,0,VALID,97.4501,VALID,0,VALID,20.0913,VALID,167,VALID,0.327734,
2011-09-10, 00:17:04,VALID,918.204,VALID,0,VALID,97.4501,VALID,0,VALID,20.1708,VALID,167,VALID,0.0207031,
2011-09-10, 00:18:04,VALID,918.191,VALID,0,VALID,97.4806,VALID,0,VALID,20.1318,VALID,167,VALID,0,
2011-09-10, 00:19:04,VALID,918.181,VALID,0,VALID,97.4349,VALID,0,VALID,20.1318,VALID,167,VALID,0,
2011-09-10, 00:20:04,VALID,918.169,VALID,0,VALID,97.4196,VALID,0,VALID,20.1498,VALID,167,VALID,0,
2011-09-10, 00:21:04,VALID,918.16,VALID,0,VALID,97.412,VALID,0,VALID,20.1693,VALID,167,VALID,0,
2011-09-10, 00:22:04,VALID,918.146,VALID,0,VALID,97.4196,VALID,0,VALID,20.2278,VALID,167,VALID,0,
2011-09-10, 00:23:04,VALID,918.136,VALID,0,VALID,97.4273,VALID,0,VALID,20.2293,VALID,167,VALID,0.0914062,
2011-09-10, 00:24:04,VALID,918.158,VALID,0,VALID,97.4349,VALID,0,VALID,20.2489,VALID,167,VALID,0.348047,
2011-09-10, 00:25:04,VALID,918.117,VALID,0,VALID,97.4349,VALID,0,VALID,20.2278,VALID,167,VALID,0.332422,
2011-09-10, 00:26:04,VALID,918.12,VALID,0,VALID,97.4196,VALID,0,VALID,20.1708,VALID,167,VALID,0.409766,
2011-09-10, 00:27:04,VALID,918.101,VALID,0,VALID,97.4501,VALID,0.107441,VALID,20.1513,VALID,167,VALID,0.498437,
2011-09-10, 00:28:04,VALID,918.078,VALID,0,VALID,97.4273,VALID,0,VALID,20.1903,VALID,167,VALID,0.533203,
2011-09-10, 00:29:04,VALID,918.054,VALID,0,VALID,97.4273,VALID,0,VALID,20.2083,VALID,167,VALID,0.628125,
2011-09-10, 00:30:04,VALID,918.048,VALID,0,VALID,97.4273,VALID,0,VALID,20.2098,VALID,167,VALID,0.750391,
2011-09-10, 00:31:04,VALID,918.022,VALID,0,VALID,97.4273,VALID,0,VALID,20.2098,VALID,167,VALID,0.596484,
2011-09-10, 00:32:04,VALID,918.069,VALID,0,VALID,97.4196,VALID,0,VALID,20.1693,VALID,167,VALID,0.317578,
2011-09-10, 00:33:04,VALID,918.048,VALID,0,VALID,97.412,VALID,0,VALID,20.2489,VALID,167,VALID,0.348047,
2011-09-10, 00:34:04,VALID,918.068,VALID,0,VALID,97.4196,VALID,0,VALID,20.2278,VALID,167,VALID,0.0117188,
2011-09-10, 00:35:04,VALID,918.019,VALID,0,VALID,97.4196,VALID,0,VALID,20.2684,VALID,167,VALID,0,
2011-09-10, 00:36:04,VALID,918.052,VALID,0,VALID,97.4349,VALID,0,VALID,20.2293,VALID,167,VALID,0,
2011-09-10, 00:37:04,VALID,918.047,VALID,0,VALID,97.4273,VALID,0,VALID,20.2098,VALID,167,VALID,0,
2011-09-10, 00:38:04,VALID,918.022,VALID,0,VALID,97.4196,VALID,0,VALID,20.2098,VALID,167,VALID,0,
2011-09-10, 00:39:04,VALID,918.002,VALID,0,VALID,97.3968,VALID,0,VALID,20.2098,VALID,167,VALID,0.391797,
2011-09-10, 00:40:04,VALID,917.995,VALID,0,VALID,97.412,VALID,0,VALID,20.2293,VALID,152,VALID,0.8,
2011-09-10, 00:41:04,VALID,917.969,VALID,0,VALID,97.4196,VALID,0,VALID,20.2098,VALID,29,VALID,0.728125,
2011-09-10, 00:42:04,VALID,917.98,VALID,0,VALID,97.4044,VALID,0,VALID,20.1903,VALID,29,VALID,0.649219,
2011-09-10, 00:43:04,VALID,917.965,VALID,0,VALID,97.412,VALID,0,VALID,20.2098,VALID,29,VALID,0.440625,
2011-09-10, 00:44:04,VALID,917.951,VALID,0,VALID,97.4273,VALID,0,VALID,20.1888,VALID,29,VALID,0.633203,
2011-09-10, 00:45:04,VALID,917.969,VALID,0,VALID,97.412,VALID,0,VALID,20.1693,VALID,29,VALID,0.362891,
2011-09-10, 00:46:04,VALID,917.923,VALID,0,VALID,97.4273,VALID,0,VALID,20.1693,VALID,29,VALID,0.239063,
2011-09-10, 00:47:04,VALID,917.887,VALID,0,VALID,97.4425,VALID,0,VALID,20.1693,VALID,29,VALID,0.205859,
2011-09-10, 00:48:04,VALID,917.887,VALID,0,VALID,97.4425,VALID,0,VALID,20.2278,VALID,29,VALID,0.408203,
2011-09-10, 00:49:04,VALID,917.861,VALID,0,VALID,97.412,VALID,0.107441,VALID,20.2473,VALID,29,VALID,0.366016,
2011-09-10, 00:50:04,VALID,917.868,VALID,0,VALID,97.4273,VALID,0,VALID,20.2668,VALID,29,VALID,0.247656,
2011-09-10, 00:51:04,VALID,917.841,VALID,0,VALID,97.4196,VALID,0,VALID,20.2879,VALID,29,VALID,0.305859,
2011-09-10, 00:52:04,VALID,917.838,VALID,0,VALID,97.4349,VALID,0.107441,VALID,20.3058,VALID,29,VALID,0.422656,
2011-09-10, 00:53:04,VALID,917.854,VALID,0,VALID,97.4425,VALID,0,VALID,20.3253,VALID,29,VALID,0.439844,
2011-09-10, 00:54:04,VALID,917.825,VALID,0,VALID,97.4425,VALID,0,VALID,20.3269,VALID,29,VALID,0.379687,
2011-09-10, 00:55:04,VALID,917.774,VALID,0,VALID,97.4425,VALID,0,VALID,20.2863,VALID,29,VALID,0.551562,
2011-09-10, 00:56:04,VALID,917.744,VALID,0,VALID,97.4273,VALID,0,VALID,20.2473,VALID,29,VALID,0.529297,
2011-09-10, 00:57:04,VALID,917.741,VALID,0,VALID,97.4196,VALID,0,VALID,20.2473,VALID,29,VALID,0.467187,
2011-09-10, 00:58:04,VALID,917.716,VALID,0,VALID,97.4196,VALID,0,VALID,20.2684,VALID,29,VALID,0.403516,
2011-09-10, 00:59:04,VALID,917.711,VALID,0,VALID,97.412,VALID,0,VALID,20.2489,VALID,29,VALID,0.605078,
2011-09-10, 01:00:04,VALID,917.681,VALID,0,VALID,97.4196,VALID,0.107441,VALID,20.2473,VALID,29,VALID,0.814453,
2011-09-10, 01:01:04,VALID,917.682,VALID,0,VALID,97.4044,VALID,0,VALID,20.2489,VALID,29,VALID,0.702344,
2011-09-10, 01:02:04,VALID,917.693,VALID,0,VALID,97.3815,VALID,0,VALID,20.2098,VALID,29,VALID,0.89375,
2011-09-10, 01:03:04,VALID,917.68,VALID,0,VALID,97.412,VALID,0,VALID,20.1498,VALID,29,VALID,1.28477,
2011-09-10, 01:04:04,VALID,917.678,VALID,0,VALID,97.412,VALID,0,VALID,20.1318,VALID,29,VALID,0.962891,
2011-09-10, 01:05:04,VALID,917.679,VALID,0,VALID,97.4044,VALID,0,VALID,20.1108,VALID,29,VALID,0.786328,
2011-09-10, 01:06:04,VALID,917.643,VALID,0,VALID,97.3968,VALID,0,VALID,20.0928,VALID,29,VALID,1.14844,
2011-09-10, 01:07:04,VALID,917.659,VALID,0,VALID,97.412,VALID,0,VALID,20.0928,VALID,29,VALID,0.980859,
2011-09-10, 01:08:04,VALID,917.635,VALID,0,VALID,97.4273,VALID,0,VALID,20.0523,VALID,29,VALID,0.762891,
2011-09-10, 01:09:04,VALID,917.607,VALID,0,VALID,97.412,VALID,0,VALID,20.0718,VALID,29,VALID,0.797266,
2011-09-10, 01:10:04,VALID,917.589,VALID,0,VALID,97.4273,VALID,0,VALID,20.0523,VALID,29,VALID,0.743359,
2011-09-10, 01:11:04,VALID,917.565,VALID,0,VALID,97.4349,VALID,0,VALID,20.0538,VALID,29,VALID,0.886328,
2011-09-10, 01:12:04,VALID,917.554,VALID,0,VALID,97.4349,VALID,0,VALID,20.0733,VALID,29,VALID,0.544141,
2011-09-10, 01:13:04,VALID,917.55,VALID,0,VALID,97.4425,VALID,0,VALID,20.0523,VALID,29,VALID,0.71875,
2011-09-10, 01:14:04,VALID,917.533,VALID,0,VALID,97.4196,VALID,0,VALID,20.0928,VALID,29,VALID,0.925781,
2011-09-10, 01:15:04,VALID,917.458,VALID,0,VALID,97.4349,VALID,0,VALID,20.0523,VALID,29,VALID,0.864453,
2011-09-10, 01:16:04,VALID,917.439,VALID,0,VALID,97.4501,VALID,0,VALID,20.0718,VALID,29,VALID,0.9,
2011-09-10, 01:17:04,VALID,917.4,VALID,0,VALID,97.4577,VALID,0,VALID,20.0328,VALID,29,VALID,0.576953,
2011-09-10, 01:18:04,VALID,917.409,VALID,0,VALID,97.4425,VALID,0.107441,VALID,20.0733,VALID,29,VALID,1.08008,
2011-09-10, 01:19:04,VALID,917.342,VALID,0,VALID,97.4349,VALID,0,VALID,20.0538,VALID,29,VALID,1.01055,
2011-09-10, 01:20:04,VALID,917.299,VALID,0,VALID,97.4501,VALID,0,VALID,20.0343,VALID,29,VALID,0.662891,
2011-09-10, 01:21:04,VALID,917.273,VALID,0,VALID,97.4425,VALID,0,VALID,20.0538,VALID,29,VALID,0.470313,
2011-09-10, 01:22:04,VALID,917.221,VALID,0,VALID,97.4349,VALID,0,VALID,20.0523,VALID,29,VALID,0.355859,
2011-09-10, 01:23:04,VALID,917.236,VALID,0,VALID,97.4577,VALID,0,VALID,20.0928,VALID,29,VALID,0.753906,
2011-09-10, 01:24:04,VALID,917.21,VALID,0,VALID,97.4806,VALID,0,VALID,20.1318,VALID,29,VALID,0.492969,
2011-09-10, 01:25:04,VALID,917.199,VALID,0,VALID,97.473,VALID,0,VALID,20.1108,VALID,28,VALID,0.579687,
2011-09-10, 01:26:04,VALID,917.217,VALID,0,VALID,97.4882,VALID,0,VALID,20.0928,VALID,29,VALID,0.575781,
2011-09-10, 01:27:04,VALID,917.174,VALID,0,VALID,97.4654,VALID,0,VALID,20.0733,VALID,29,VALID,0.738281,
2011-09-10, 01:28:04,VALID,917.165,VALID,0,VALID,97.4654,VALID,0,VALID,20.0733,VALID,29,VALID,0.590625,
2011-09-10, 01:29:04,VALID,917.173,VALID,0,VALID,97.4577,VALID,0,VALID,20.0718,VALID,29,VALID,0.420312,
2011-09-10, 01:30:04,VALID,917.126,VALID,0,VALID,97.473,VALID,0,VALID,20.1123,VALID,29,VALID,0.285937,
2011-09-10, 01:31:04,VALID,917.129,VALID,0,VALID,97.4654,VALID,0,VALID,20.0913,VALID,29,VALID,0.0285156,
2011-09-10, 01:32:04,VALID,917.096,VALID,0,VALID,97.4501,VALID,0,VALID,20.1318,VALID,29,VALID,0.583594,
2011-09-10, 01:33:04,VALID,917.077,VALID,0,VALID,97.4654,VALID,0,VALID,20.0913,VALID,29,VALID,0.456641,
2011-09-10, 01:34:04,VALID,917.067,VALID,0,VALID,97.4501,VALID,0,VALID,20.0733,VALID,29,VALID,0.574609,
2011-09-10, 01:35:04,VALID,917.039,VALID,0,VALID,97.4577,VALID,0,VALID,20.0928,VALID,29,VALID,0.505469,
2011-09-10, 01:36:04,VALID,916.996,VALID,0,VALID,97.473,VALID,0,VALID,20.0913,VALID,29,VALID,0.235547,
2011-09-10, 01:37:04,VALID,916.974,VALID,0,VALID,97.473,VALID,0,VALID,20.0913,VALID,29,VALID,0.326172,
2011-09-10, 01:38:04,VALID,916.936,VALID,0,VALID,97.4806,VALID,0,VALID,20.1318,VALID,29,VALID,0.35625,
2011-09-10, 01:39:04,VALID,916.913,VALID,0,VALID,97.4654,VALID,0,VALID,20.1108,VALID,29,VALID,0.469531,
2011-09-10, 01:40:04,VALID,916.91,VALID,0,VALID,97.4577,VALID,0,VALID,20.1318,VALID,29,VALID,0,
2011-09-10, 01:41:04,VALID,916.869,VALID,0,VALID,97.4654,VALID,0,VALID,20.1318,VALID,29,VALID,0.218359,
2011-09-10, 01:42:04,VALID,916.851,VALID,0,VALID,97.4654,VALID,0,VALID,20.1318,VALID,29,VALID,0,
2011-09-10, 01:43:04,VALID,916.847,VALID,0,VALID,97.4654,VALID,0,VALID,20.1303,VALID,29,VALID,0,
2011-09-10, 01:44:04,VALID,916.818,VALID,0,VALID,97.473,VALID,0,VALID,20.1303,VALID,29,VALID,0.244922,
2011-09-10, 01:45:04,VALID,916.817,VALID,0,VALID,97.4654,VALID,0,VALID,20.1708,VALID,29,VALID,0,
2011-09-10, 01:46:04,VALID,916.814,VALID,0,VALID,97.4654,VALID,0,VALID,20.1513,VALID,29,VALID,0,
2011-09-10, 01:47:04,VALID,916.852,VALID,0,VALID,97.473,VALID,0,VALID,20.1303,VALID,29,VALID,0.173438,
2011-09-10, 01:48:04,VALID,916.834,VALID,0,VALID,97.4654,VALID,0,VALID,20.1303,VALID,29,VALID,0.299219,
2011-09-10, 01:49:04,VALID,916.827,VALID,0,VALID,97.473,VALID,0,VALID,20.1108,VALID,29,VALID,0.0707031,
2011-09-10, 01:50:04,VALID,916.819,VALID,0,VALID,97.4577,VALID,0,VALID,20.1108,VALID,29,VALID,0,
2011-09-10, 01:51:04,VALID,916.831,VALID,0,VALID,97.4882,VALID,0,VALID,20.0718,VALID,29,VALID,0.314063,
2011-09-10, 01:52:04,VALID,916.813,VALID,0,VALID,97.4806,VALID,0,VALID,20.0718,VALID,29,VALID,0.255469,
2011-09-10, 01:53:04,VALID,916.784,VALID,0,VALID,97.4806,VALID,0,VALID,20.1108,VALID,29,VALID,0.0980469,
2011-09-10, 01:54:04,VALID,916.756,VALID,0,VALID,97.473,VALID,0,VALID,20.1108,VALID,29,VALID,0,
2011-09-10, 01:55:04,VALID,916.73,VALID,0,VALID,97.4959,VALID,0,VALID,20.1108,VALID,29,VALID,0,
2011-09-10, 01:56:04,VALID,916.688,VALID,0,VALID,97.4806,VALID,0,VALID,20.1303,VALID,29,VALID,0,
2011-09-10, 01:57:04,VALID,916.644,VALID,0,VALID,97.4882,VALID,0,VALID,20.1303,VALID,29,VALID,0,
2011-09-10, 01:58:04,VALID,916.592,VALID,0,VALID,97.4882,VALID,0,VALID,20.1693,VALID,29,VALID,0,
2011-09-10, 01:59:04,VALID,916.568,VALID,0,VALID,97.5111,VALID,0,VALID,20.1513,VALID,29,VALID,0,
2011-09-10, 02:00:04,VALID,916.549,VALID,0,VALID,97.4882,VALID,0,VALID,20.1529,VALID,29,VALID,0,
2011-09-10, 02:01:04,VALID,916.514,VALID,0,VALID,97.5111,VALID,0,VALID,20.1318,VALID,29,VALID,0.512109,
2011-09-10, 02:02:04,VALID,916.488,VALID,0,VALID,97.4806,VALID,0,VALID,20.0718,VALID,29,VALID,0.295312,
2011-09-10, 02:03:04,VALID,916.511,VALID,0,VALID,97.4959,VALID,0,VALID,20.0733,VALID,29,VALID,0.382813,
2011-09-10, 02:04:04,VALID,916.463,VALID,0,VALID,97.473,VALID,0,VALID,20.0928,VALID,29,VALID,0.290234,
2011-09-10, 02:05:04,VALID,916.471,VALID,0,VALID,97.4882,VALID,0,VALID,20.0718,VALID,29,VALID,0.247656,
2011-09-10, 02:06:04,VALID,916.462,VALID,0,VALID,97.4806,VALID,0,VALID,20.0733,VALID,29,VALID,0.352344,
2011-09-10, 02:07:04,VALID,916.48,VALID,0,VALID,97.5035,VALID,0,VALID,20.0328,VALID,29,VALID,0.0195313,
2011-09-10, 02:08:04,VALID,916.507,VALID,0,VALID,97.5035,VALID,0.107441,VALID,20.0523,VALID,29,VALID,0.135156,
2011-09-10, 02:09:04,VALID,916.522,VALID,0,VALID,97.5035,VALID,0.107441,VALID,20.0523,VALID,29,VALID,0,
2011-09-10, 02:10:04,VALID,916.529,VALID,0,VALID,97.4882,VALID,0,VALID,20.0928,VALID,29,VALID,0,
2011-09-10, 02:11:04,VALID,916.53,VALID,0,VALID,97.4882,VALID,0,VALID,20.1123,VALID,29,VALID,0,
2011-09-10, 02:12:04,VALID,916.545,VALID,0,VALID,97.4882,VALID,0,VALID,20.0913,VALID,29,VALID,0,
2011-09-10, 02:13:04,VALID,916.524,VALID,0,VALID,97.5035,VALID,0,VALID,20.1108,VALID,29,VALID,0,
2011-09-10, 02:14:04,VALID,916.549,VALID,0,VALID,97.4882,VALID,0,VALID,20.1318,VALID,29,VALID,0,
2011-09-10, 02:15:04,VALID,916.519,VALID,0,VALID,97.4959,VALID,0,VALID,20.0928,VALID,29,VALID,0,
2011-09-10, 02:16:04,VALID,916.473,VALID,0,VALID,97.5035,VALID,0,VALID,20.0928,VALID,29,VALID,0.0519531,
2011-09-10, 02:17:04,VALID,916.447,VALID,0,VALID,97.4882,VALID,0,VALID,20.0523,VALID,29,VALID,1.00234,
2011-09-10, 02:18:04,VALID,916.477,VALID,0,VALID,97.4806,VALID,0,VALID,20.0733,VALID,29,VALID,0.354297,
2011-09-10, 02:19:04,VALID,916.485,VALID,0,VALID,97.5111,VALID,0,VALID,20.0538,VALID,29,VALID,0.391016,
2011-09-10, 02:20:04,VALID,916.499,VALID,0,VALID,97.5035,VALID,0,VALID,20.0328,VALID,251,VALID,0.560938,
2011-09-10, 02:21:04,VALID,916.503,VALID,0,VALID,97.5111,VALID,0,VALID,20.0133,VALID,252,VALID,0.243359,
2011-09-10, 02:22:04,VALID,916.519,VALID,0,VALID,97.5111,VALID,0,VALID,20.0328,VALID,252,VALID,0,
2011-09-10, 02:23:04,VALID,916.525,VALID,0,VALID,97.5035,VALID,0,VALID,20.0733,VALID,251,VALID,0.09375,
2011-09-10, 02:24:04,VALID,916.446,VALID,0,VALID,97.5187,VALID,0,VALID,20.0523,VALID,251,VALID,0,
2011-09-10, 02:25:04,VALID,916.454,VALID,0,VALID,97.5264,VALID,0,VALID,20.0928,VALID,251,VALID,0,
2011-09-10, 02:26:04,VALID,916.417,VALID,0,VALID,97.5264,VALID,0,VALID,20.1123,VALID,251,VALID,0,
2011-09-10, 02:27:04,VALID,916.389,VALID,0,VALID,97.5035,VALID,0,VALID,20.1108,VALID,251,VALID,0.191016,
2011-09-10, 02:28:04,VALID,916.353,VALID,0,VALID,97.5187,VALID,0,VALID,20.1123,VALID,252,VALID,0.200391,
2011-09-10, 02:29:04,VALID,916.35,VALID,0,VALID,97.4959,VALID,0,VALID,20.0928,VALID,251,VALID,0.105859,
2011-09-10, 02:30:04,VALID,916.356,VALID,0,VALID,97.4959,VALID,0,VALID,20.0928,VALID,251,VALID,0.000390625,
2011-09-10, 02:31:04,VALID,916.379,VALID,0,VALID,97.5187,VALID,0,VALID,20.0538,VALID,251,VALID,0.345703,
2011-09-10, 02:32:04,VALID,916.379,VALID,0,VALID,97.4959,VALID,0,VALID,20.0928,VALID,251,VALID,0,
2011-09-10, 02:33:04,VALID,916.437,VALID,0,VALID,97.5035,VALID,0,VALID,20.0928,VALID,251,VALID,0.0605469,
2011-09-10, 02:34:04,VALID,916.461,VALID,0,VALID,97.5187,VALID,0,VALID,20.0928,VALID,251,VALID,0.141406,
2011-09-10, 02:35:04,VALID,916.484,VALID,0,VALID,97.5035,VALID,0,VALID,20.0718,VALID,251,VALID,0.110547,
2011-09-10, 02:36:04,VALID,916.513,VALID,0,VALID,97.5035,VALID,0.107441,VALID,20.0733,VALID,251,VALID,0.558594,
2011-09-10, 02:37:04,VALID,916.485,VALID,0,VALID,97.4959,VALID,0,VALID,20.1123,VALID,251,VALID,0,
2011-09-10, 02:38:04,VALID,916.493,VALID,0,VALID,97.4959,VALID,0.107441,VALID,20.1123,VALID,251,VALID,0.464453,
2011-09-10, 02:39:04,VALID,916.486,VALID,0,VALID,97.4882,VALID,0,VALID,20.0913,VALID,251,VALID,0.855469,
2011-09-10, 02:40:04,VALID,916.454,VALID,0,VALID,97.4959,VALID,0,VALID,20.0928,VALID,33,VALID,0.914063,
2011-09-10, 02:41:04,VALID,916.459,VALID,0,VALID,97.5035,VALID,0,VALID,20.0718,VALID,33,VALID,0.892969,
2011-09-10, 02:42:04,VALID,916.454,VALID,0,VALID,97.4882,VALID,0,VALID,20.1123,VALID,33,VALID,1.05938,
2011-09-10, 02:43:04,VALID,916.452,VALID,0,VALID,97.5035,VALID,0,VALID,20.0928,VALID,33,VALID,0.902344,
2011-09-10, 02:44:04,VALID,916.441,VALID,0,VALID,97.4959,VALID,0,VALID,20.0523,VALID,33,VALID,0.647266,
2011-09-10, 02:45:04,VALID,916.461,VALID,0,VALID,97.4806,VALID,0,VALID,20.0538,VALID,33,VALID,0.278516,
2011-09-10, 02:46:04,VALID,916.445,VALID,0,VALID,97.4959,VALID,0,VALID,20.0538,VALID,33,VALID,0.284375,
2011-09-10, 02:47:04,VALID,916.434,VALID,0,VALID,97.4882,VALID,0,VALID,20.0343,VALID,33,VALID,0.160156,
2011-09-10, 02:48:04,VALID,916.429,VALID,0,VALID,97.4806,VALID,0,VALID,20.0328,VALID,33,VALID,0,
2011-09-10, 02:49:04,VALID,916.425,VALID,0,VALID,97.4882,VALID,0,VALID,20.0538,VALID,33,VALID,0,
2011-09-10, 02:50:04,VALID,916.409,VALID,0,VALID,97.4959,VALID,0,VALID,20.0328,VALID,33,VALID,0.210156,
2011-09-10, 02:51:04,VALID,916.402,VALID,0,VALID,97.5035,VALID,0,VALID,20.0343,VALID,33,VALID,0.05625,
2011-09-10, 02:52:04,VALID,916.38,VALID,0,VALID,97.5111,VALID,0,VALID,20.0343,VALID,33,VALID,0,
2011-09-10, 02:53:04,VALID,916.379,VALID,0,VALID,97.5035,VALID,0,VALID,20.0133,VALID,33,VALID,0,
2011-09-10, 02:54:04,VALID,916.386,VALID,0,VALID,97.5035,VALID,0,VALID,20.0133,VALID,33,VALID,0.442969,
2011-09-10, 02:55:04,VALID,916.403,VALID,0,VALID,97.4959,VALID,0.107441,VALID,20.0328,VALID,33,VALID,0.589453,
2011-09-10, 02:56:04,VALID,916.367,VALID,0,VALID,97.4959,VALID,0.107441,VALID,20.0523,VALID,33,VALID,0.332422,
2011-09-10, 02:57:04,VALID,916.33,VALID,0,VALID,97.4882,VALID,0.107441,VALID,20.0718,VALID,33,VALID,0.279687,
2011-09-10, 02:58:04,VALID,916.348,VALID,0,VALID,97.5111,VALID,0.107441,VALID,20.0523,VALID,33,VALID,0.164063,
2011-09-10, 02:59:04,VALID,916.31,VALID,0,VALID,97.4959,VALID,0.107441,VALID,20.0118,VALID,33,VALID,0.164063,
2011-09-10, 03:00:04,VALID,916.321,VALID,0,VALID,97.5187,VALID,0.107441,VALID,20.0133,VALID,33,VALID,0.582031,
2011-09-10, 03:01:04,VALID,916.285,VALID,0,VALID,97.5111,VALID,0.107441,VALID,20.0133,VALID,33,VALID,0.257031,
2011-09-10, 03:02:04,VALID,916.283,VALID,0,VALID,97.5111,VALID,0.107441,VALID,20.0133,VALID,33,VALID,0.39375,
2011-09-10, 03:03:04,VALID,916.23,VALID,0,VALID,97.5111,VALID,0.107441,VALID,19.9938,VALID,269,VALID,0.692969,
2011-09-10, 03:04:04,VALID,916.205,VALID,0,VALID,97.4959,VALID,0.107441,VALID,19.9743,VALID,266,VALID,0.564844,
2011-09-10, 03:05:04,VALID,916.193,VALID,0,VALID,97.5111,VALID,0.107441,VALID,19.9743,VALID,266,VALID,0.326953,
2011-09-10, 03:06:04,VALID,916.175,VALID,0,VALID,97.5111,VALID,0.107441,VALID,19.9743,VALID,266,VALID,0.446484,
2011-09-10, 03:07:04,VALID,916.167,VALID,0,VALID,97.4959,VALID,0.107441,VALID,19.9743,VALID,266,VALID,0.259375,
2011-09-10, 03:08:04,VALID,916.164,VALID,0,VALID,97.4882,VALID,0.107441,VALID,19.9743,VALID,266,VALID,0.376563,
2011-09-10, 03:09:04,VALID,916.192,VALID,0,VALID,97.4959,VALID,0.214882,VALID,19.9533,VALID,266,VALID,0.404297,
2011-09-10, 03:10:04,VALID,916.215,VALID,0,VALID,97.4882,VALID,0,VALID,19.9548,VALID,266,VALID,0.315625,
2011-09-10, 03:11:04,VALID,916.222,VALID,0,VALID,97.5111,VALID,0,VALID,19.9953,VALID,266,VALID,0.380859,
2011-09-10, 03:12:04,VALID,916.253,VALID,0,VALID,97.5111,VALID,0,VALID,19.9743,VALID,266,VALID,0.354297,
2011-09-10, 03:13:04,VALID,916.258,VALID,0,VALID,97.5035,VALID,0,VALID,20.0148,VALID,266,VALID,0.205859,
2011-09-10, 03:14:04,VALID,916.274,VALID,0,VALID,97.4959,VALID,0,VALID,20.0133,VALID,266,VALID,0.0265625,
2011-09-10, 03:15:04,VALID,916.264,VALID,0,VALID,97.4959,VALID,0,VALID,20.0343,VALID,266,VALID,0.151953,
2011-09-10, 03:16:04,VALID,916.25,VALID,0,VALID,97.4959,VALID,0,VALID,20.0133,VALID,266,VALID,0.264453,
2011-09-10, 03:17:04,VALID,916.258,VALID,0,VALID,97.5035,VALID,0,VALID,20.0343,VALID,266,VALID,0.557422,
2011-09-10, 03:18:04,VALID,916.257,VALID,0,VALID,97.5187,VALID,0,VALID,20.0133,VALID,266,VALID,0,
2011-09-10, 03:19:04,VALID,916.258,VALID,0,VALID,97.4882,VALID,0,VALID,20.0538,VALID,266,VALID,0.379297,
2011-09-10, 03:20:04,VALID,916.276,VALID,0,VALID,97.5111,VALID,0,VALID,20.0343,VALID,266,VALID,0.605078,
2011-09-10, 03:21:04,VALID,916.257,VALID,0,VALID,97.5035,VALID,0,VALID,20.0328,VALID,266,VALID,0,
2011-09-10, 03:22:04,VALID,916.281,VALID,0,VALID,97.5035,VALID,0,VALID,20.0538,VALID,266,VALID,0,
2011-09-10, 03:23:04,VALID,916.296,VALID,0,VALID,97.5111,VALID,0,VALID,20.0928,VALID,266,VALID,0,
2011-09-10, 03:24:04,VALID,916.288,VALID,0,VALID,97.5111,VALID,0,VALID,20.1123,VALID,266,VALID,0,
2011-09-10, 03:25:04,VALID,916.266,VALID,0,VALID,97.5035,VALID,0.107441,VALID,20.0913,VALID,266,VALID,0,
2011-09-10, 03:26:04,VALID,916.277,VALID,0,VALID,97.5111,VALID,0.107441,VALID,20.0508,VALID,266,VALID,0,
2011-09-10, 03:27:04,VALID,916.264,VALID,0,VALID,97.4882,VALID,0.107441,VALID,20.0718,VALID,266,VALID,0,
2011-09-10, 03:28:04,VALID,916.29,VALID,0,VALID,97.5035,VALID,0.107441,VALID,20.0523,VALID,266,VALID,0,
2011-09-10, 03:29:04,VALID,916.282,VALID,0,VALID,97.5187,VALID,0.107441,VALID,20.0523,VALID,266,VALID,0,
2011-09-10, 03:30:04,VALID,916.264,VALID,0,VALID,97.4959,VALID,0,VALID,20.0328,VALID,266,VALID,0,
2011-09-10, 03:31:04,VALID,916.295,VALID,0,VALID,97.5035,VALID,0.107441,VALID,20.0313,VALID,266,VALID,0,
2011-09-10, 03:32:04,VALID,916.269,VALID,0,VALID,97.5035,VALID,0.107441,VALID,20.0328,VALID,266,VALID,0,
2011-09-10, 03:33:04,VALID,916.258,VALID,0,VALID,97.5035,VALID,0.107441,VALID,20.0523,VALID,266,VALID,0,
2011-09-10, 03:34:04,VALID,916.273,VALID,0,VALID,97.5035,VALID,0.107441,VALID,20.0703,VALID,266,VALID,0.00898437,
2011-09-10, 03:35:04,VALID,916.23,VALID,0,VALID,97.5111,VALID,0.214882,VALID,20.0508,VALID,266,VALID,0,
2011-09-10, 03:36:04,VALID,916.207,VALID,0,VALID,97.5187,VALID,0.107441,VALID,20.0508,VALID,266,VALID,0,
2011-09-10, 03:37:04,VALID,916.203,VALID,0,VALID,97.5187,VALID,0.107441,VALID,20.0313,VALID,266,VALID,0,
2011-09-10, 03:38:04,VALID,916.184,VALID,0,VALID,97.5111,VALID,0.107441,VALID,20.0328,VALID,266,VALID,0.353516,
2011-09-10, 03:39:04,VALID,916.162,VALID,0,VALID,97.4959,VALID,0.107441,VALID,20.0328,VALID,266,VALID,0.225781,
2011-09-10, 03:40:04,VALID,916.163,VALID,0,VALID,97.5035,VALID,0,VALID,20.0148,VALID,266,VALID,0.0449219,
2011-09-10, 03:41:04,VALID,916.176,VALID,0,VALID,97.5187,VALID,0,VALID,20.0148,VALID,266,VALID,0,
2011-09-10, 03:42:04,VALID,916.195,VALID,0,VALID,97.4806,VALID,0,VALID,20.0148,VALID,266,VALID,0,
2011-09-10, 03:43:04,VALID,916.195,VALID,0,VALID,97.5035,VALID,0.107441,VALID,19.9938,VALID,266,VALID,0,
2011-09-10, 03:44:04,VALID,916.247,VALID,0,VALID,97.5111,VALID,0,VALID,20.0343,VALID,266,VALID,0,
2011-09-10, 03:45:04,VALID,916.274,VALID,0,VALID,97.5035,VALID,0,VALID,20.0133,VALID,266,VALID,0.0984375,
2011-09-10, 03:46:04,VALID,916.285,VALID,0,VALID,97.5187,VALID,0,VALID,19.9953,VALID,266,VALID,0,